Back to catalog

STARLINK-35772

AliveCommunicationsVLEO
NORAD 66976·PAYLOAD·🇺🇸 United States

Launched Dec 8, 2025 from Cape Canaveral Space Force Station

Loading…

Next Passes (next 24 hours)

TLE

FreshSource: CelesTrak SupGP

Epoch: Sep 14, 2026, 21:17 UTC

1 66976C 25288T   26257.88729167  .00053743  00000+0  19468-2 0  2577
2 66976  43.0037  34.9874 0001382 276.0324  61.1771 15.27548189    10

Track STARLINK-35772 in real time with AllMySat

Download on the App Store